TimeCDT,TemperatureF,Dew PointF,Humidity,Sea Level PressureIn,VisibilityMPH,Wind Direction,Wind SpeedMPH,Gust SpeedMPH,PrecipitationIn,Events,Conditions,WindDirDegrees,DateUTC
12:15 AM,31.1,19.4,62,30.10,10.0,NNW,9.2,-,N/A,,Clear,340,2014-03-19 05:15:00
12:35 AM,30.6,19.4,63,30.10,10.0,NNW,9.2,-,N/A,,Clear,340,2014-03-19 05:35:00
12:55 AM,30.0,19.4,65,30.10,10.0,NNW,5.8,-,N/A,,Clear,330,2014-03-19 05:55:00
1:15 AM,27.1,18.5,70,30.09,10.0,NW,8.1,-,N/A,,Clear,310,2014-03-19 06:15:00
1:35 AM,26.6,18.7,72,30.09,10.0,NW,6.9,-,N/A,,Clear,320,2014-03-19 06:35:00
1:55 AM,29.1,20.5,70,30.09,10.0,NW,8.1,-,N/A,,Clear,320,2014-03-19 06:55:00
2:15 AM,28.4,20.8,73,30.10,10.0,NW,11.5,-,N/A,,Clear,320,2014-03-19 07:15:00
2:35 AM,29.1,21.2,72,30.10,10.0,NW,10.4,-,N/A,,Clear,320,2014-03-19 07:35:00
2:55 AM,29.8,21.9,72,30.11,10.0,NNW,13.8,-,N/A,,Clear,330,2014-03-19 07:55:00
3:15 AM,29.3,21.7,73,30.11,10.0,NNW,11.5,-,N/A,,Clear,330,2014-03-19 08:15:00
3:35 AM,28.9,21.6,74,30.12,10.0,NNW,10.4,-,N/A,,Clear,330,2014-03-19 08:35:00
3:55 AM,28.9,21.2,73,30.12,10.0,NNW,10.4,-,N/A,,Clear,330,2014-03-19 08:55:00
4:15 AM,28.8,20.8,72,30.12,10.0,NNW,9.2,-,N/A,,Clear,330,2014-03-19 09:15:00
4:35 AM,28.4,20.7,73,30.12,10.0,NNW,11.5,-,N/A,,Clear,330,2014-03-19 09:35:00
4:55 AM,28.4,20.3,72,30.12,10.0,NNW,9.2,-,N/A,,Clear,330,2014-03-19 09:55:00
5:15 AM,27.9,20.1,73,30.14,10.0,NNW,10.4,-,N/A,,Clear,330,2014-03-19 10:15:00
5:35 AM,27.0,19.9,75,30.15,10.0,NW,6.9,-,N/A,,Clear,310,2014-03-19 10:35:00
5:55 AM,25.7,18.5,74,30.16,10.0,WNW,6.9,-,N/A,,Clear,290,2014-03-19 10:55:00
6:15 AM,26.2,18.9,74,30.16,10.0,WNW,6.9,-,N/A,,Clear,300,2014-03-19 11:15:00
6:35 AM,25.7,18.9,75,30.18,10.0,Calm,Calm,-,N/A,,Clear,0,2014-03-19 11:35:00
6:55 AM,25.5,18.5,75,30.19,10.0,WNW,8.1,-,N/A,,Clear,290,2014-03-19 11:55:00
7:15 AM,25.3,18.5,75,30.20,10.0,West,6.9,-,N/A,,Clear,270,2014-03-19 12:15:00
7:35 AM,23.5,17.4,77,30.20,10.0,Calm,Calm,-,N/A,,Clear,0,2014-03-19 12:35:00
7:55 AM,23.4,17.1,77,30.21,10.0,Calm,Calm,-,N/A,,Clear,0,2014-03-19 12:55:00
8:15 AM,24.8,17.6,74,30.21,10.0,Calm,Calm,-,N/A,,Clear,0,2014-03-19 13:15:00
8:35 AM,26.6,18.3,71,30.22,10.0,WNW,11.5,-,N/A,,Clear,300,2014-03-19 13:35:00
8:55 AM,27.9,18.5,68,30.23,10.0,NW,9.2,-,N/A,,Clear,310,2014-03-19 13:55:00
9:15 AM,30.6,19.4,63,30.24,10.0,WNW,4.6,-,N/A,,Clear,300,2014-03-19 14:15:00
9:35 AM,32.7,20.7,61,30.24,10.0,NW,8.1,-,N/A,,Clear,310,2014-03-19 14:35:00
9:55 AM,36.1,21.2,55,30.25,10.0,NW,6.9,-,N/A,,Clear,320,2014-03-19 14:55:00
10:15 AM,38.3,21.6,51,30.26,10.0,NW,5.8,-,N/A,,Clear,320,2014-03-19 15:15:00
10:35 AM,39.2,21.0,48,30.26,10.0,NW,4.6,-,N/A,,Clear,320,2014-03-19 15:35:00
10:55 AM,40.3,21.2,47,30.26,10.0,Calm,Calm,-,N/A,,Clear,0,2014-03-19 15:55:00
11:15 AM,41.5,20.5,43,30.26,10.0,Calm,Calm,-,N/A,,Clear,0,2014-03-19 16:15:00
11:35 AM,42.4,20.7,42,30.26,10.0,WNW,5.8,-,N/A,,Clear,290,2014-03-19 16:35:00
11:55 AM,43.5,18.7,37,30.26,10.0,Calm,Calm,-,N/A,,Clear,0,2014-03-19 16:55:00
12:15 PM,44.6,18.9,36,30.25,10.0,Calm,Calm,-,N/A,,Clear,0,2014-03-19 17:15:00
12:35 PM,46.4,19.0,34,30.25,10.0,Calm,Calm,-,N/A,,Clear,0,2014-03-19 17:35:00
12:55 PM,47.1,16.7,30,30.24,10.0,NW,4.6,-,N/A,,Clear,320,2014-03-19 17:55:00
1:15 PM,49.1,18.1,29,30.24,10.0,WSW,6.9,-,N/A,,Clear,240,2014-03-19 18:15:00
1:35 PM,50.2,18.5,29,30.22,10.0,WSW,8.1,-,N/A,,Clear,250,2014-03-19 18:35:00
1:55 PM,50.0,16.9,27,30.21,10.0,West,4.6,23.0,N/A,,Clear,270,2014-03-19 18:55:00
2:15 PM,50.9,16.9,26,30.20,10.0,West,9.2,-,N/A,,Clear,280,2014-03-19 19:15:00
2:35 PM,51.3,16.7,25,30.20,10.0,West,6.9,-,N/A,,Clear,280,2014-03-19 19:35:00
2:55 PM,52.3,17.4,25,30.19,10.0,West,10.4,18.4,N/A,,Clear,270,2014-03-19 19:55:00
3:15 PM,53.1,16.5,24,30.18,10.0,WSW,9.2,18.4,N/A,,Clear,250,2014-03-19 20:15:00
3:35 PM,54.5,15.3,21,30.16,10.0,West,8.1,19.6,N/A,,Clear,280,2014-03-19 20:35:00
3:55 PM,54.1,14.9,21,30.16,10.0,West,11.5,17.3,N/A,,Clear,270,2014-03-19 20:55:00
4:15 PM,54.0,15.4,22,30.15,10.0,WSW,11.5,17.3,N/A,,Clear,240,2014-03-19 21:15:00
4:35 PM,54.9,14.2,20,30.15,10.0,West,8.1,-,N/A,,Clear,260,2014-03-19 21:35:00
4:55 PM,54.5,14.5,21,30.15,10.0,WSW,9.2,-,N/A,,Clear,240,2014-03-19 21:55:00
5:15 PM,55.0,13.8,20,30.14,10.0,WSW,13.8,19.6,N/A,,Clear,240,2014-03-19 22:15:00
5:35 PM,55.0,12.9,19,30.14,10.0,WSW,15.0,23.0,N/A,,Clear,240,2014-03-19 22:35:00
5:55 PM,55.9,11.7,17,30.14,10.0,West,11.5,17.3,N/A,,Clear,260,2014-03-19 22:55:00
6:15 PM,55.4,10.4,17,30.14,10.0,WSW,12.7,-,N/A,,Clear,250,2014-03-19 23:15:00
6:35 PM,54.7,10.4,17,30.14,10.0,SW,9.2,-,N/A,,Clear,230,2014-03-19 23:35:00
6:55 PM,54.5,10.6,17,30.14,10.0,SW,11.5,-,N/A,,Clear,220,2014-03-19 23:55:00
7:15 PM,53.6,10.4,18,30.14,10.0,SW,12.7,-,N/A,,Clear,220,2014-03-20 00:15:00
7:35 PM,52.3,10.4,19,30.14,10.0,SSW,10.4,-,N/A,,Clear,210,2014-03-20 00:35:00
7:55 PM,47.8,10.9,23,30.13,10.0,SSW,9.2,-,N/A,,Clear,200,2014-03-20 00:55:00
8:15 PM,44.4,9.5,24,30.13,10.0,SSW,10.4,-,N/A,,Clear,200,2014-03-20 01:15:00
8:35 PM,39.9,9.0,28,30.13,10.0,South,10.4,-,N/A,,Clear,190,2014-03-20 01:35:00
8:55 PM,38.8,9.0,29,30.14,10.0,South,9.2,-,N/A,,Clear,190,2014-03-20 01:55:00
9:15 PM,38.1,8.8,30,30.14,10.0,South,10.4,-,N/A,,Clear,190,2014-03-20 02:15:00
9:35 PM,36.9,8.2,31,30.14,10.0,South,10.4,-,N/A,,Clear,190,2014-03-20 02:35:00
9:55 PM,34.0,7.2,33,30.14,10.0,South,9.2,-,N/A,,Clear,180,2014-03-20 02:55:00
10:15 PM,34.7,9.3,35,30.14,10.0,South,8.1,-,N/A,,Clear,170,2014-03-20 03:15:00
10:35 PM,35.6,7.7,31,30.14,10.0,South,11.5,-,N/A,,Clear,190,2014-03-20 03:35:00
10:55 PM,33.4,7.9,34,30.14,10.0,South,10.4,-,N/A,,Clear,180,2014-03-20 03:55:00
11:15 PM,34.7,9.3,35,30.15,10.0,South,11.5,-,N/A,,Clear,180,2014-03-20 04:15:00
11:35 PM,34.7,8.4,33,30.15,10.0,South,9.2,-,N/A,,Clear,190,2014-03-20 04:35:00
11:55 PM,32.5,9.1,38,30.15,10.0,South,10.4,-,N/A,,Clear,190,2014-03-20 04:55:00